Terminal Aerodrome Forecast
Issued by NWS Amarillo, TX

Home | Current Version | Previous Version | Text Only | Print | Product List | Glossary On
Versions: 1 2 3 4 5 6 7 8 9 10 11 12 13 14
000
FTUS44 KAMA 191100
TAFGUY
TAF
KGUY 191120Z 1912/2012 20007KT P6SM SCT015 BKN110
     FM191600 18013KT P6SM SCT040 BKN110
     FM200200 18008KT P6SM SCT020 BKN080
     FM200500 18006KT P6SM SCT010 OVC030=

USA.gov is the U.S. government's official web portal to all federal, state and local government web resources and services.